| time (UTC) | temp C | wind direction | speed KPH | gust KPH | rain 1hr cm | rain 24hr cm | rain mn cm | humidity % | barometer mb |
| 20260905145005 | 30 | 211 | 3.2 | 8.0 | 0.00 | 0.00 | 0.00 | 82 | 1015.3 |
| 20260905144707 | 30 | 251 | 3.2 | 8.0 | 0.00 | 0.00 | 0.00 | 85 | 1015.2 |
| 20260905144506 | 30 | 251 | 3.2 | 8.0 | 0.00 | 0.00 | 0.00 | 85 | 1015.2 |
| 20260905143935 | 30 | 236 | 3.2 | 12.9 | 0.00 | 0.00 | 0.00 | 84 | 1015.2 |
| 20260905143405 | 30 | 228 | 4.8 | 12.9 | 0.00 | 0.00 | 0.00 | 83 | 1015.2 |
| 20260905142905 | 30 | 244 | 3.2 | 11.3 | 0.00 | 0.00 | 0.00 | 84 | 1015.1 |
| 20260905141305 | 29 | 256 | 3.2 | 8.0 | 0.00 | 0.00 | 0.00 | 87 | 1015.3 |
| 20260905140735 | 29 | 242 | 1.6 | 8.0 | 0.00 | 0.00 | 0.00 | 87 | 1015.3 |
| 20260905135918 | 28 | 243 | 3.2 | 6.4 | 0.00 | 0.00 | 0.00 | 88 | 1015.3 |
| 20260905135706 | 28 | 243 | 3.2 | 6.4 | 0.00 | 0.00 | 0.00 | 88 | 1015.3 |
| 20260905135329 | 28 | 228 | 3.2 | 6.4 | 0.00 | 0.00 | 0.00 | 89 | 1015.4 |
| 20260905135135 | 28 | 228 | 3.2 | 6.4 | 0.00 | 0.00 | 0.00 | 89 | 1015.4 |
| 20260905134404 | 28 | 247 | 3.2 | 8.0 | 0.00 | 0.00 | 0.00 | 90 | 1015.3 |
| 20260905134105 | 28 | 247 | 3.2 | 8.0 | 0.00 | 0.00 | 0.00 | 90 | 1015.3 |
| 20260905133819 | 28 | 233 | 1.6 | 4.8 | 0.00 | 0.00 | 0.00 | 92 | 1015.2 |
| 20260905133535 | 28 | 233 | 1.6 | 4.8 | 0.00 | 0.00 | 0.00 | 92 | 1015.2 |
| 20260905133005 | 27 | 235 | 1.6 | 6.4 | 0.00 | 0.00 | 0.00 | 92 | 1015.3 |
| 20260905132755 | 27 | 234 | 3.2 | 8.0 | 0.00 | 0.00 | 0.00 | 93 | 1015.3 |
| 20260905132435 | 27 | 234 | 3.2 | 8.0 | 0.00 | 0.00 | 0.00 | 93 | 1015.3 |
| 20260905131905 | 27 | 227 | 3.2 | 8.0 | 0.00 | 0.00 | 0.00 | 93 | 1015.3 |
| 20260905130717 | 26 | 241 | 4.8 | 11.3 | 0.00 | 0.00 | 0.00 | 96 | 1015.2 |
| 20260905130713 | 26 | 239 | 3.2 | 9.7 | 0.00 | 0.00 | 0.00 | 96 | 1015.1 |
| 20260905130711 | 30 | 100 | 3.2 | 6.4 | 0.00 | 0.36 | 0.00 | 85 | 1014.7 |
| 20260905130708 | 30 | 85 | 3.2 | 9.7 | 0.00 | 0.41 | 0.00 | 83 | 1014.5 |
| 20260905125805 | 27 | 249 | 3.2 | 8.0 | 0.00 | 0.00 | 0.00 | 95 | 1015.2 |
| 20260905125514 | 26 | 245 | 3.2 | 6.4 | 0.00 | 0.00 | 0.00 | 95 | 1015.2 |
| 20260905125306 | 26 | 245 | 3.2 | 6.4 | 0.00 | 0.00 | 0.00 | 95 | 1015.2 |
| 20260905125036 | 26 | 244 | 4.8 | 11.3 | 0.00 | 0.00 | 0.00 | 95 | 1015.2 |
| 20260905124805 | 26 | 244 | 4.8 | 11.3 | 0.00 | 0.00 | 0.00 | 95 | 1015.2 |
| 20260905124404 | 26 | 241 | 4.8 | 11.3 | 0.00 | 0.00 | 0.00 | 96 | 1015.2 |
| 20260905124235 | 26 | 241 | 4.8 | 11.3 | 0.00 | 0.00 | 0.00 | 96 | 1015.2 |
| 20260905123844 | 26 | 239 | 3.2 | 9.7 | 0.00 | 0.00 | 0.00 | 96 | 1015.1 |
| 20260905123706 | 26 | 239 | 3.2 | 9.7 | 0.00 | 0.00 | 0.00 | 96 | 1015.1 |
| 20260905123650 | 25 | 177 | 0.0 | 3.2 | 0.00 | 0.61 | 0.00 | 100 | 1014.6 |
| 20260905123419 | 26 | 238 | 1.6 | 8.0 | 0.00 | 0.00 | 0.00 | 98 | 1015.2 |
| 20260905123135 | 26 | 238 | 1.6 | 8.0 | 0.00 | 0.00 | 0.00 | 98 | 1015.2 |
| 20260905122853 | 26 | 235 | 1.6 | 4.8 | 0.00 | 0.00 | 0.00 | 98 | 1015.1 |
| 20260905122605 | 26 | 235 | 1.6 | 4.8 | 0.00 | 0.00 | 0.00 | 98 | 1015.1 |
| 20260905122105 | 25 | 229 | 1.6 | 4.8 | 0.00 | 0.00 | 0.00 | 98 | 1015.1 |
| 20260905121830 | 25 | 230 | 1.6 | 3.2 | 0.00 | 0.00 | 0.00 | 98 | 1015.1 |
| 20260905121605 | 25 | 230 | 1.6 | 3.2 | 0.00 | 0.00 | 0.00 | 98 | 1015.1 |
| 20260905120535 | 25 | 241 | 3.2 | 4.8 | 0.00 | 0.00 | 0.00 | 99 | 1014.9 |
| 20260905120035 | 25 | 240 | 3.2 | 6.4 | 0.00 | 0.00 | 0.00 | 99 | 1015.0 |
| 20260905115201 | 25 | 234 | 1.6 | 6.4 | 0.00 | 0.00 | 0.00 | 99 | 1014.8 |
| 20260905115006 | 25 | 234 | 1.6 | 6.4 | 0.00 | 0.00 | 0.00 | 99 | 1014.8 |
| 20260905114705 | 25 | 233 | 1.6 | 4.8 | 0.00 | 0.00 | 0.00 | 99 | 1014.7 |
| 20260905114505 | 25 | 233 | 1.6 | 4.8 | 0.00 | 0.00 | 0.00 | 99 | 1014.7 |
| 20260905114118 | 25 | 244 | 1.6 | 4.8 | 0.00 | 0.00 | 0.00 | 99 | 1014.7 |
| 20260905113935 | 25 | 244 | 1.6 | 4.8 | 0.00 | 0.00 | 0.00 | 99 | 1014.7 |
| 20260905113612 | 25 | 244 | 1.6 | 4.8 | 0.00 | 0.00 | 0.00 | 99 | 1014.7 |
| 20260905113405 | 25 | 244 | 1.6 | 4.8 | 0.00 | 0.00 | 0.00 | 99 | 1014.7 |
| 20260905112905 | 25 | 240 | 3.2 | 6.4 | 0.00 | 0.00 | 0.00 | 99 | 1014.6 |
| 20260905112406 | 25 | 239 | 3.2 | 8.0 | 0.00 | 0.00 | 0.00 | 99 | 1014.6 |
| 20260905111004 | 25 | 238 | 3.2 | 6.4 | 0.00 | 0.00 | 0.00 | 99 | 1014.6 |
| 20260905110805 | 25 | 238 | 3.2 | 6.4 | 0.00 | 0.00 | 0.00 | 99 | 1014.6 |
| 20260905110526 | 25 | 241 | 3.2 | 6.4 | 0.00 | 0.00 | 0.00 | 100 | 1014.7 |
| 20260905110306 | 25 | 241 | 3.2 | 6.4 | 0.00 | 0.00 | 0.00 | 100 | 1014.7 |
| 20260905105929 | 25 | 236 | 1.6 | 4.8 | 0.00 | 0.00 | 0.00 | 99 | 1014.6 |
| 20260905105735 | 25 | 236 | 1.6 | 4.8 | 0.00 | 0.00 | 0.00 | 99 | 1014.6 |
| 20260905105500 | 25 | 237 | 1.6 | 3.2 | 0.00 | 0.00 | 0.00 | 99 | 1014.5 |
| 20260905105236 | 25 | 237 | 1.6 | 3.2 | 0.00 | 0.00 | 0.00 | 99 | 1014.5 |
| 20260905104919 | 25 | 249 | 1.6 | 3.2 | 0.00 | 0.00 | 0.00 | 99 | 1014.5 |
| 20260905104735 | 25 | 249 | 1.6 | 3.2 | 0.00 | 0.00 | 0.00 | 99 | 1014.5 |
| 20260905104205 | 25 | 248 | 0.0 | 3.2 | 0.00 | 0.00 | 0.00 | 99 | 1014.6 |
| 20260905103412 | 25 | 238 | 1.6 | 3.2 | 0.00 | 0.00 | 0.00 | 99 | 1014.5 |
| 20260905103136 | 25 | 238 | 1.6 | 3.2 | 0.00 | 0.00 | 0.00 | 99 | 1014.5 |
| 20260905102635 | 25 | 238 | 1.6 | 3.2 | 0.00 | 0.00 | 0.00 | 99 | 1014.5 |
| 20260905102439 | 25 | 236 | 1.6 | 3.2 | 0.00 | 0.00 | 0.00 | 99 | 1014.3 |
| 20260905102135 | 25 | 236 | 1.6 | 3.2 | 0.00 | 0.00 | 0.00 | 99 | 1014.3 |
| 20260905101804 | 25 | 234 | 1.6 | 3.2 | 0.00 | 0.00 | 0.00 | 98 | 1014.4 |
| 20260905101636 | 25 | 234 | 1.6 | 3.2 | 0.00 | 0.00 | 0.00 | 98 | 1014.4 |
| 20260905101412 | 25 | 234 | 1.6 | 3.2 | 0.00 | 0.00 | 0.00 | 98 | 1014.4 |
| 20260905101135 | 25 | 234 | 1.6 | 3.2 | 0.00 | 0.00 | 0.00 | 98 | 1014.4 |
| 20260905100635 | 25 | 234 | 1.6 | 3.2 | 0.00 | 0.00 | 0.00 | 98 | 1014.3 |
| 20260905100340 | 25 | 232 | 0.0 | 3.2 | 0.00 | 0.00 | 0.00 | 98 | 1014.4 |
| 20260905100105 | 25 | 232 | 0.0 | 3.2 | 0.00 | 0.00 | 0.00 | 98 | 1014.4 |
| 20260905095035 | 25 | 232 | 0.0 | 3.2 | 0.00 | 0.00 | 0.00 | 98 | 1014.3 |
| 20260905093936 | 25 | 243 | 1.6 | 4.8 | 0.00 | 0.00 | 0.00 | 98 | 1014.3 |
| 20260905093648 | 25 | 247 | 1.6 | 3.2 | 0.00 | 0.00 | 0.00 | 98 | 1014.3 |
| 20260905093435 | 25 | 247 | 1.6 | 3.2 | 0.00 | 0.00 | 0.00 | 98 | 1014.3 |
| 20260905092906 | 25 | 247 | 1.6 | 3.2 | 0.00 | 0.00 | 0.00 | 98 | 1014.3 |
| 20260905092405 | 25 | 238 | 1.6 | 3.2 | 0.00 | 0.00 | 0.00 | 99 | 1014.2 |
| 20260905091538 | 25 | 200 | 0.0 | 1.6 | 0.00 | 0.00 | 0.00 | 99 | 1014.2 |
| 20260905091335 | 25 | 200 | 0.0 | 1.6 | 0.00 | 0.00 | 0.00 | 99 | 1014.2 |
| 20260905090836 | 25 | 195 | 0.0 | 1.6 | 0.00 | 0.00 | 0.00 | 99 | 1014.1 |
| 20260905090533 | 25 | 195 | 0.0 | 1.6 | 0.00 | 0.00 | 0.00 | 99 | 1014.0 |
| 20260905090305 | 25 | 195 | 0.0 | 1.6 | 0.00 | 0.00 | 0.00 | 99 | 1014.0 |
| 20260905085735 | 25 | 230 | 0.0 | 3.2 | 0.00 | 0.00 | 0.00 | 99 | 1014.0 |
| 20260905084205 | 25 | 191 | 0.0 | 1.6 | 0.00 | 0.00 | 0.00 | 98 | 1014.0 |
| 20260905083637 | 25 | 0 | 0.0 | 0.0 | 0.00 | 0.00 | 0.00 | 98 | 1014.1 |
| 20260905083105 | 25 | 190 | 0.0 | 1.6 | 0.00 | 0.00 | 0.00 | 98 | 1014.2 |
| 20260905082605 | 25 | 188 | 0.0 | 1.6 | 0.00 | 0.00 | 0.00 | 98 | 1014.3 |
| 20260905082106 | 25 | 187 | 0.0 | 1.6 | 0.00 | 0.00 | 0.00 | 98 | 1014.3 |
| 20260905081715 | 25 | 0 | 0.0 | 0.0 | 0.00 | 0.00 | 0.00 | 98 | 1014.3 |
| 20260905081535 | 25 | 0 | 0.0 | 0.0 | 0.00 | 0.00 | 0.00 | 98 | 1014.3 |
| 20260905081353 | 25 | 187 | 0.0 | 1.6 | 0.00 | 0.00 | 0.00 | 98 | 1014.2 |
| 20260905081035 | 25 | 187 | 0.0 | 1.6 | 0.00 | 0.00 | 0.00 | 98 | 1014.2 |
| 20260905080705 | 25 | 190 | 0.0 | 1.6 | 0.00 | 0.00 | 0.00 | 98 | 1014.2 |
| 20260905080505 | 25 | 190 | 0.0 | 1.6 | 0.00 | 0.00 | 0.00 | 98 | 1014.2 |
| 20260905075109 | 25 | 166 | 0.0 | 1.6 | 0.00 | 0.00 | 0.00 | 98 | 1014.1 |
| 20260905074905 | 25 | 166 | 0.0 | 1.6 | 0.00 | 0.00 | 0.00 | 98 | 1014.1 |
| 20260905074405 | 25 | 173 | 0.0 | 1.6 | 0.00 | 0.00 | 0.00 | 98 | 1014.2 |
| 20260905073022 | 24 | 107 | 0.0 | 3.2 | 0.00 | 0.00 | 0.00 | 97 | 1014.2 |
| 20260905072836 | 24 | 107 | 0.0 | 3.2 | 0.00 | 0.00 | 0.00 | 97 | 1014.2 |
| 20260905071101 | 25 | 217 | 0.0 | 1.6 | 0.00 | 0.00 | 0.00 | 96 | 1014.2 |
| 20260905070835 | 25 | 217 | 0.0 | 1.6 | 0.00 | 0.00 | 0.00 | 96 | 1014.2 |
| 20260905065528 | 25 | 235 | 0.0 | 1.6 | 0.00 | 0.00 | 0.00 | 96 | 1014.4 |
| 20260905065306 | 25 | 235 | 0.0 | 1.6 | 0.00 | 0.00 | 0.00 | 96 | 1014.4 |
| 20260905064502 | 25 | 241 | 0.0 | 1.6 | 0.00 | 0.00 | 0.00 | 96 | 1014.4 |
| 20260905064305 | 25 | 241 | 0.0 | 1.6 | 0.00 | 0.00 | 0.00 | 96 | 1014.4 |
| 20260905063735 | 25 | 0 | 0.0 | 0.0 | 0.00 | 0.00 | 0.00 | 95 | 1014.5 |
| 20260905063444 | 25 | 241 | 0.0 | 1.6 | 0.00 | 0.00 | 0.00 | 95 | 1014.5 |
| 20260905063235 | 25 | 241 | 0.0 | 1.6 | 0.00 | 0.00 | 0.00 | 95 | 1014.5 |
| 20260905062706 | 25 | 241 | 0.0 | 1.6 | 0.00 | 0.00 | 0.00 | 95 | 1014.4 |
| 20260905062135 | 25 | 241 | 0.0 | 1.6 | 0.00 | 0.00 | 0.00 | 95 | 1014.5 |
| 20260905061105 | 25 | 241 | 0.0 | 1.6 | 0.00 | 0.00 | 0.00 | 95 | 1014.5 |
| 20260905060705 | 25 | 241 | 0.0 | 1.6 | 0.00 | 0.00 | 0.00 | 95 | 1014.5 |
| 20260905060535 | 25 | 241 | 0.0 | 1.6 | 0.00 | 0.00 | 0.00 | 95 | 1014.5 |
| 20260905060159 | 25 | 0 | 0.0 | 1.6 | 0.00 | 0.00 | 0.00 | 95 | 1014.6 |
| 20260905060005 | 25 | 0 | 0.0 | 1.6 | 0.00 | 0.00 | 0.00 | 95 | 1014.6 |
| 20260905055614 | 25 | 0 | 0.0 | 0.0 | 0.00 | 0.00 | 0.00 | 95 | 1014.7 |
| 20260905055435 | 25 | 0 | 0.0 | 0.0 | 0.00 | 0.00 | 0.00 | 95 | 1014.7 |
| 20260905054905 | 25 | 265 | 0.0 | 3.2 | 0.00 | 0.00 | 0.00 | 95 | 1014.8 |
| 20260905053805 | 25 | 189 | 0.0 | 3.2 | 0.00 | 0.00 | 0.00 | 95 | 1014.8 |
| 20260905053509 | 25 | 175 | 0.0 | 3.2 | 0.00 | 0.00 | 0.00 | 95 | 1014.9 |
| 20260905053305 | 25 | 175 | 0.0 | 3.2 | 0.00 | 0.00 | 0.00 | 95 | 1014.9 |
| 20260905052458 | 26 | 183 | 0.0 | 1.6 | 0.00 | 0.00 | 0.00 | 95 | 1015.1 |
| 20260905052235 | 26 | 183 | 0.0 | 1.6 | 0.00 | 0.00 | 0.00 | 95 | 1015.1 |
| 20260905051901 | 26 | 183 | 0.0 | 1.6 | 0.00 | 0.00 | 0.00 | 95 | 1015.1 |
| 20260905051735 | 26 | 183 | 0.0 | 1.6 | 0.00 | 0.00 | 0.00 | 95 | 1015.1 |
| 20260905051205 | 26 | 180 | 0.0 | 1.6 | 0.00 | 0.00 | 0.00 | 95 | 1015.2 |
| 20260905050351 | 26 | 176 | 0.0 | 3.2 | 0.00 | 0.00 | 0.00 | 95 | 1015.2 |
| 20260905050135 | 26 | 176 | 0.0 | 3.2 | 0.00 | 0.00 | 0.00 | 95 | 1015.2 |
| 20260905045939 | 26 | 180 | 0.0 | 1.6 | 0.00 | 0.00 | 0.00 | 95 | 1015.3 |
| 20260905045635 | 26 | 180 | 0.0 | 1.6 | 0.00 | 0.00 | 0.00 | 95 | 1015.3 |
| 20260905045105 | 26 | 188 | 0.0 | 1.6 | 0.00 | 0.00 | 0.00 | 95 | 1015.3 |
| 20260905044605 | 26 | 192 | 0.0 | 1.6 | 0.00 | 0.00 | 0.00 | 95 | 1015.4 |
| 20260905044035 | 26 | 225 | 0.0 | 3.2 | 0.00 | 0.00 | 0.00 | 94 | 1015.4 |
| 20260905043653 | 26 | 216 | 1.6 | 3.2 | 0.00 | 0.00 | 0.00 | 94 | 1015.4 |
| 20260905043505 | 26 | 216 | 1.6 | 3.2 | 0.00 | 0.00 | 0.00 | 94 | 1015.4 |
| 20260905042935 | 26 | 214 | 0.0 | 3.2 | 0.00 | 0.00 | 0.00 | 95 | 1015.3 |
| 20260905042651 | 26 | 214 | 0.0 | 1.6 | 0.00 | 0.00 | 0.00 | 94 | 1015.3 |
| 20260905042405 | 26 | 214 | 0.0 | 1.6 | 0.00 | 0.00 | 0.00 | 94 | 1015.3 |
| 20260905042112 | 26 | 208 | 1.6 | 3.2 | 0.00 | 0.00 | 0.00 | 94 | 1015.3 |
| 20260905041905 | 26 | 208 | 1.6 | 3.2 | 0.00 | 0.00 | 0.00 | 94 | 1015.3 |
| 20260905041654 | 26 | 207 | 1.6 | 3.2 | 0.00 | 0.00 | 0.00 | 93 | 1015.4 |
| 20260905041405 | 26 | 207 | 1.6 | 3.2 | 0.00 | 0.00 | 0.00 | 93 | 1015.4 |
| 20260905040905 | 26 | 182 | 1.6 | 3.2 | 0.00 | 0.00 | 0.00 | 93 | 1015.2 |
| 20260905040405 | 26 | 170 | 1.6 | 3.2 | 0.00 | 0.00 | 0.00 | 93 | 1015.3 |
| 20260905040127 | 26 | 175 | 0.0 | 3.2 | 0.00 | 0.00 | 0.00 | 94 | 1015.3 |
| 20260905035835 | 26 | 175 | 0.0 | 3.2 | 0.00 | 0.00 | 0.00 | 94 | 1015.3 |
| 20260905035648 | 26 | 182 | 0.0 | 3.2 | 0.00 | 0.00 | 0.00 | 95 | 1015.3 |
| 20260905035335 | 26 | 182 | 0.0 | 3.2 | 0.00 | 0.00 | 0.00 | 95 | 1015.3 |
| 20260905034835 | 26 | 182 | 0.0 | 1.6 | 0.00 | 0.00 | 0.00 | 95 | 1015.3 |
| 20260905034335 | 26 | 0 | 0.0 | 0.0 | 0.00 | 0.00 | 0.00 | 95 | 1015.5 |
| 20260905034134 | 26 | 0 | 0.0 | 0.0 | 0.00 | 0.00 | 0.00 | 95 | 1015.5 |
| 20260905033807 | 26 | 0 | 0.0 | 0.0 | 0.00 | 0.00 | 0.00 | 95 | 1015.5 |
| 20260905032735 | 26 | 115 | 0.0 | 3.2 | 0.00 | 0.00 | 0.00 | 95 | 1015.7 |
| 20260905032235 | 26 | 115 | 0.0 | 3.2 | 0.00 | 0.00 | 0.00 | 95 | 1015.9 |
| 20260905031735 | 26 | 211 | 0.0 | 1.6 | 0.00 | 0.00 | 0.00 | 95 | 1015.9 |
| 20260905031235 | 26 | 211 | 0.0 | 1.6 | 0.00 | 0.00 | 0.00 | 95 | 1015.9 |
| 20260905030705 | 26 | 211 | 0.0 | 1.6 | 0.00 | 0.00 | 0.00 | 95 | 1015.8 |
| 20260905025605 | 26 | 0 | 0.0 | 0.0 | 0.00 | 0.00 | 0.00 | 94 | 1015.9 |
| 20260905025341 | 26 | 0 | 0.0 | 0.0 | 0.00 | 0.00 | 0.00 | 94 | 1015.9 |
| 20260905025105 | 26 | 0 | 0.0 | 0.0 | 0.00 | 0.00 | 0.00 | 94 | 1015.9 |
| 20260905024535 | 26 | 179 | 0.0 | 1.6 | 0.00 | 0.00 | 0.00 | 94 | 1015.7 |
| 20260905023738 | 26 | 113 | 1.6 | 4.8 | 0.00 | 0.00 | 0.00 | 95 | 1015.7 |
| 20260905023505 | 26 | 113 | 1.6 | 4.8 | 0.00 | 0.00 | 0.00 | 95 | 1015.7 |
| 20260905022935 | 26 | 102 | 3.2 | 9.7 | 0.00 | 0.00 | 0.00 | 95 | 1015.7 |
| 20260905022405 | 26 | 94 | 1.6 | 9.7 | 0.00 | 0.00 | 0.00 | 94 | 1015.5 |
| 20260905021904 | 26 | 83 | 0.0 | 1.6 | 0.00 | 0.00 | 0.00 | 94 | 1015.6 |
| 20260905020905 | 26 | 77 | 1.6 | 6.4 | 0.00 | 0.00 | 0.00 | 95 | 1015.6 |
| 20260905020104 | 26 | 97 | 1.6 | 4.8 | 0.00 | 0.00 | 0.00 | 94 | 1015.6 |
| 20260905015836 | 26 | 97 | 1.6 | 4.8 | 0.00 | 0.00 | 0.00 | 94 | 1015.6 |
| 20260905014305 | 26 | 261 | 0.0 | 1.6 | 0.00 | 0.00 | 0.00 | 94 | 1015.5 |
| 20260905013736 | 26 | 198 | 0.0 | 3.2 | 0.00 | 0.00 | 0.00 | 94 | 1015.3 |
| 20260905012635 | 26 | 160 | 1.6 | 3.2 | 0.00 | 0.00 | 0.00 | 93 | 1015.2 |
| 20260905012105 | 26 | 182 | 1.6 | 8.0 | 0.00 | 0.00 | 0.00 | 93 | 1015.3 |
| 20260905011742 | 26 | 184 | 1.6 | 8.0 | 0.00 | 0.00 | 0.00 | 93 | 1015.3 |
| 20260905011535 | 26 | 184 | 1.6 | 8.0 | 0.00 | 0.00 | 0.00 | 93 | 1015.3 |
| 20260905011035 | 26 | 187 | 3.2 | 8.0 | 0.00 | 0.00 | 0.00 | 92 | 1015.3 |
| 20260905010713 | 26 | 169 | 3.2 | 8.0 | 0.00 | 0.00 | 0.00 | 91 | 1015.3 |
| 20260905010505 | 26 | 169 | 3.2 | 8.0 | 0.00 | 0.00 | 0.00 | 91 | 1015.3 |
| 20260905010352 | 27 | 170 | 1.6 | 9.7 | 0.00 | 0.00 | 0.00 | 89 | 1015.3 |
| 20260905010005 | 27 | 170 | 1.6 | 9.7 | 0.00 | 0.00 | 0.00 | 89 | 1015.3 |
| 20260905005650 | 27 | 173 | 1.6 | 9.7 | 0.00 | 0.00 | 0.00 | 88 | 1015.0 |
| 20260905005505 | 27 | 173 | 1.6 | 9.7 | 0.00 | 0.00 | 0.00 | 88 | 1015.0 |
| 20260905004935 | 27 | 161 | 4.8 | 12.9 | 0.00 | 0.00 | 0.00 | 88 | 1014.9 |
| 20260905004405 | 27 | 171 | 6.4 | 17.7 | 0.00 | 0.00 | 0.00 | 88 | 1015.2 |
| 20260905003905 | 27 | 164 | 6.4 | 17.7 | 0.00 | 0.00 | 0.00 | 87 | 1015.5 |
| 20260905003405 | 28 | 115 | 6.4 | 17.7 | 0.00 | 0.00 | 0.00 | 89 | 1015.5 |
| 20260905003158 | 28 | 97 | 4.8 | 16.1 | 0.00 | 0.00 | 0.00 | 90 | 1015.7 |
| 20260905002905 | 28 | 97 | 4.8 | 16.1 | 0.00 | 0.00 | 0.00 | 90 | 1015.7 |
| 20260905001305 | 28 | 42 | 1.6 | 6.4 | 0.00 | 0.03 | 0.00 | 89 | 1015.4 |
| 20260905000735 | 28 | 24 | 3.2 | 6.4 | 0.00 | 0.03 | 0.00 | 89 | 1015.0 |
| 20260904234851 | 29 | 6 | 4.8 | 9.7 | 0.00 | 0.05 | 0.00 | 86 | 1015.2 |
| 20260904234705 | 29 | 6 | 4.8 | 9.7 | 0.00 | 0.05 | 0.00 | 86 | 1015.2 |
| 20260904234135 | 29 | 11 | 3.2 | 9.7 | 0.00 | 0.05 | 0.00 | 86 | 1015.0 |
| 20260904233635 | 29 | 40 | 1.6 | 8.0 | 0.00 | 0.08 | 0.00 | 86 | 1014.8 |
| 20260904233355 | 29 | 101 | 1.6 | 4.8 | 0.00 | 0.10 | 0.00 | 85 | 1014.9 |
| 20260904233105 | 29 | 101 | 1.6 | 4.8 | 0.00 | 0.10 | 0.00 | 85 | 1014.9 |
| 20260904232808 | 29 | 110 | 1.6 | 4.8 | 0.00 | 0.15 | 0.00 | 86 | 1014.9 |
| 20260904232605 | 29 | 110 | 1.6 | 4.8 | 0.00 | 0.15 | 0.00 | 86 | 1014.9 |
| 20260904232310 | 29 | 106 | 1.6 | 4.8 | 0.00 | 0.23 | 0.00 | 86 | 1014.9 |
| 20260904232105 | 29 | 106 | 1.6 | 4.8 | 0.00 | 0.23 | 0.00 | 86 | 1014.9 |
| 20260904231605 | 30 | 102 | 3.2 | 6.4 | 0.00 | 0.28 | 0.00 | 86 | 1014.8 |
| 20260904231035 | 30 | 100 | 3.2 | 6.4 | 0.00 | 0.36 | 0.00 | 85 | 1014.7 |
| 20260904230424 | 30 | 85 | 3.2 | 9.7 | 0.00 | 0.41 | 0.00 | 83 | 1014.5 |
| 20260904230035 | 30 | 85 | 3.2 | 9.7 | 0.00 | 0.41 | 0.00 | 83 | 1014.5 |
| 20260904225756 | 30 | 95 | 3.2 | 9.7 | 0.00 | 0.43 | 0.00 | 83 | 1014.5 |
| 20260904225505 | 30 | 95 | 3.2 | 9.7 | 0.00 | 0.43 | 0.00 | 83 | 1014.5 |
| 20260904225005 | 31 | 95 | 1.6 | 4.8 | 0.00 | 0.43 | 0.00 | 81 | 1014.5 |
| 20260904224505 | 31 | 78 | 0.0 | 4.8 | 0.00 | 0.43 | 0.00 | 81 | 1014.4 |
| 20260904223935 | 31 | 0 | 0.0 | 0.0 | 0.00 | 0.43 | 0.00 | 79 | 1014.3 |
| 20260904223434 | 31 | 198 | 0.0 | 1.6 | 0.00 | 0.43 | 0.00 | 80 | 1014.5 |
| 20260904223302 | 31 | 199 | 0.0 | 1.6 | 0.00 | 0.43 | 0.00 | 79 | 1014.6 |
| 20260904222905 | 31 | 199 | 0.0 | 1.6 | 0.00 | 0.43 | 0.00 | 79 | 1014.6 |
| 20260904222405 | 31 | 220 | 1.6 | 3.2 | 0.00 | 0.43 | 0.00 | 80 | 1014.5 |
| 20260904221335 | 31 | 249 | 3.2 | 4.8 | 0.00 | 0.43 | 0.00 | 80 | 1014.0 |
| 20260904220305 | 31 | 238 | 3.2 | 8.0 | 0.00 | 0.43 | 0.00 | 79 | 1013.3 |
| 20260904215735 | 31 | 239 | 3.2 | 11.3 | 0.00 | 0.43 | 0.00 | 79 | 1013.3 |
| 20260904213605 | 31 | 233 | 3.2 | 11.3 | 0.00 | 0.43 | 0.00 | 78 | 1013.9 |
| 20260904213035 | 31 | 235 | 4.8 | 12.9 | 0.00 | 0.43 | 0.00 | 77 | 1014.1 |
| 20260904212505 | 31 | 235 | 3.2 | 12.9 | 0.00 | 0.43 | 0.00 | 76 | 1014.2 |
| 20260904212005 | 31 | 232 | 3.2 | 14.5 | 0.00 | 0.43 | 0.00 | 76 | 1014.4 |
| 20260904211803 | 31 | 234 | 4.8 | 14.5 | 0.00 | 0.43 | 0.00 | 76 | 1014.3 |
| 20260904211505 | 31 | 234 | 4.8 | 14.5 | 0.00 | 0.43 | 0.00 | 76 | 1014.3 |
| 20260904211005 | 31 | 241 | 6.4 | 16.1 | 0.00 | 0.43 | 0.00 | 75 | 1014.2 |
| 20260904210505 | 31 | 255 | 8.0 | 17.7 | 0.00 | 0.43 | 0.00 | 75 | 1013.9 |
| 20260904210202 | 32 | 245 | 6.4 | 17.7 | 0.00 | 0.43 | 0.00 | 74 | 1014.2 |
| 20260904205935 | 32 | 245 | 6.4 | 17.7 | 0.00 | 0.43 | 0.00 | 74 | 1014.2 |
| 20260904205435 | 32 | 241 | 6.4 | 14.5 | 0.00 | 0.43 | 0.00 | 73 | 1014.2 |
| 20260904205218 | 32 | 253 | 6.4 | 16.1 | 0.00 | 0.43 | 0.00 | 76 | 1013.9 |
| 20260904204905 | 32 | 253 | 6.4 | 16.1 | 0.00 | 0.43 | 0.00 | 76 | 1013.9 |
| 20260904204405 | 32 | 259 | 6.4 | 16.1 | 0.00 | 0.46 | 0.00 | 74 | 1013.8 |
| 20260904203905 | 32 | 259 | 6.4 | 12.9 | 0.00 | 0.46 | 0.00 | 75 | 1013.8 |
| 20260904203335 | 32 | 255 | 4.8 | 12.9 | 0.00 | 0.46 | 0.00 | 76 | 1013.9 |
| 20260904202235 | 32 | 254 | 4.8 | 11.3 | 0.00 | 0.61 | 0.00 | 82 | 1013.7 |
| 20260904201735 | 31 | 261 | 4.8 | 12.9 | 0.00 | 0.61 | 0.00 | 80 | 1013.7 |
| 20260904200705 | 32 | 248 | 3.2 | 9.7 | 0.00 | 0.61 | 0.00 | 77 | 1013.7 |
| 20260904195705 | 32 | 252 | 3.2 | 6.4 | 0.00 | 0.61 | 0.00 | 76 | 1013.9 |
| 20260904194705 | 32 | 321 | 3.2 | 6.4 | 0.00 | 0.61 | 0.00 | 76 | 1013.9 |
| 20260904193035 | 31 | 255 | 3.2 | 8.0 | 0.00 | 0.61 | 0.00 | 78 | 1014.2 |
| 20260904192534 | 31 | 274 | 3.2 | 8.0 | 0.00 | 0.61 | 0.00 | 79 | 1014.2 |
| 20260904192228 | 30 | 293 | 3.2 | 8.0 | 0.00 | 0.61 | 0.00 | 79 | 1014.4 |
| 20260904192035 | 30 | 293 | 3.2 | 8.0 | 0.00 | 0.61 | 0.00 | 79 | 1014.4 |
| 20260904191534 | 29 | 302 | 3.2 | 4.8 | 0.00 | 0.61 | 0.00 | 85 | 1014.7 |
| 20260904191246 | 27 | 293 | 1.6 | 4.8 | 0.00 | 0.61 | 0.00 | 88 | 1015.1 |
| 20260904191035 | 27 | 293 | 1.6 | 4.8 | 0.00 | 0.61 | 0.00 | 88 | 1015.1 |
| 20260904190714 | 27 | 254 | 1.6 | 4.8 | 0.00 | 0.61 | 0.00 | 90 | 1014.8 |
| 20260904190535 | 27 | 254 | 1.6 | 4.8 | 0.00 | 0.61 | 0.00 | 90 | 1014.8 |
| 20260904190251 | 26 | 233 | 3.2 | 8.0 | 0.00 | 0.61 | 0.00 | 90 | 1015.0 |
| 20260904190004 | 26 | 233 | 3.2 | 8.0 | 0.00 | 0.61 | 0.00 | 90 | 1015.0 |
| 20260904185504 | 26 | 206 | 4.8 | 14.5 | 0.00 | 0.61 | 0.00 | 88 | 1015.2 |
| 20260904185124 | 27 | 189 | 9.7 | 17.7 | 0.00 | 0.61 | 0.00 | 87 | 1015.2 |
| 20260904184935 | 27 | 189 | 9.7 | 17.7 | 0.00 | 0.61 | 0.00 | 87 | 1015.2 |
| 20260904184435 | 27 | 193 | 11.3 | 17.7 | 0.00 | 0.61 | 0.00 | 84 | 1015.0 |
| 20260904183406 | 31 | 189 | 6.4 | 27.4 | 0.00 | 0.61 | 0.00 | 76 | 1015.3 |
| 20260904182835 | 32 | 178 | 4.8 | 11.3 | 0.00 | 0.61 | 0.00 | 76 | 1015.1 |
| 20260904181834 | 33 | 193 | 6.4 | 16.1 | 0.00 | 0.61 | 0.00 | 74 | 1015.2 |
| 20260904180805 | 33 | 182 | 4.8 | 19.3 | 0.00 | 0.61 | 0.00 | 73 | 1015.2 |
| 20260904180009 | 32 | 213 | 6.4 | 16.1 | 0.00 | 0.61 | 0.00 | 77 | 1015.3 |
| 20260904175734 | 32 | 213 | 6.4 | 16.1 | 0.00 | 0.61 | 0.00 | 77 | 1015.3 |
| 20260904175234 | 32 | 195 | 4.8 | 14.5 | 0.00 | 0.61 | 0.00 | 74 | 1015.4 |
| 20260904174704 | 32 | 217 | 3.2 | 11.3 | 0.00 | 0.61 | 0.00 | 76 | 1015.3 |
| 20260904174135 | 32 | 222 | 3.2 | 12.9 | 0.00 | 0.61 | 0.00 | 75 | 1015.4 |
| 20260904173605 | 32 | 213 | 3.2 | 12.9 | 0.00 | 0.61 | 0.00 | 75 | 1015.5 |
| 20260904173343 | 32 | 202 | 3.2 | 8.0 | 0.00 | 0.61 | 0.00 | 77 | 1015.5 |
| 20260904173105 | 32 | 202 | 3.2 | 8.0 | 0.00 | 0.61 | 0.00 | 77 | 1015.5 |
| 20260904172605 | 32 | 204 | 3.2 | 12.9 | 0.00 | 0.61 | 0.00 | 75 | 1015.6 |
| 20260904172408 | 32 | 219 | 3.2 | 12.9 | 0.00 | 0.61 | 0.00 | 74 | 1015.6 |
| 20260904172035 | 32 | 219 | 3.2 | 12.9 | 0.00 | 0.61 | 0.00 | 74 | 1015.6 |
| 20260904171722 | 32 | 224 | 3.2 | 8.0 | 0.00 | 0.61 | 0.00 | 76 | 1015.5 |
| 20260904171504 | 32 | 224 | 3.2 | 8.0 | 0.00 | 0.61 | 0.00 | 76 | 1015.5 |
| 20260904170713 | 32 | 225 | 4.8 | 12.9 | 0.00 | 0.61 | 0.00 | 77 | 1015.8 |
| 20260904170435 | 32 | 225 | 4.8 | 12.9 | 0.00 | 0.61 | 0.00 | 77 | 1015.8 |
| 20260904165905 | 32 | 227 | 4.8 | 12.9 | 0.00 | 0.61 | 0.00 | 77 | 1015.8 |
| 20260904163805 | 32 | 213 | 4.8 | 14.5 | 0.00 | 0.61 | 0.00 | 76 | 1016.2 |
| 20260904163235 | 32 | 223 | 4.8 | 14.5 | 0.00 | 0.61 | 0.00 | 79 | 1016.3 |
| 20260904162705 | 31 | 230 | 6.4 | 14.5 | 0.00 | 0.61 | 0.00 | 81 | 1016.3 |
| 20260904162136 | 31 | 238 | 6.4 | 14.5 | 0.00 | 0.61 | 0.00 | 79 | 1016.4 |
| 20260904161836 | 31 | 239 | 6.4 | 14.5 | 0.00 | 0.61 | 0.00 | 80 | 1016.5 |
| 20260904161635 | 31 | 239 | 6.4 | 14.5 | 0.00 | 0.61 | 0.00 | 80 | 1016.5 |
| 20260904160829 | 31 | 264 | 3.2 | 6.4 | 0.00 | 0.61 | 0.00 | 82 | 1016.6 |
| 20260904160605 | 31 | 264 | 3.2 | 6.4 | 0.00 | 0.61 | 0.00 | 82 | 1016.6 |
| 20260904160105 | 31 | 270 | 3.2 | 4.8 | 0.00 | 0.61 | 0.00 | 82 | 1016.6 |
| 20260904155035 | 31 | 210 | 3.2 | 9.7 | 0.00 | 0.61 | 0.00 | 81 | 1016.6 |
| 20260904154310 | 31 | 231 | 3.2 | 9.7 | 0.00 | 0.61 | 0.00 | 82 | 1016.7 |
| 20260904154005 | 31 | 231 | 3.2 | 9.7 | 0.00 | 0.61 | 0.00 | 82 | 1016.7 |
| 20260904152934 | 31 | 193 | 4.8 | 12.9 | 0.00 | 0.61 | 0.00 | 82 | 1016.6 |
| 20260904152656 | 31 | 189 | 3.2 | 12.9 | 0.00 | 0.61 | 0.00 | 82 | 1016.6 |
| 20260904152434 | 31 | 189 | 3.2 | 12.9 | 0.00 | 0.61 | 0.00 | 82 | 1016.6 |
| 20260904151904 | 31 | 213 | 3.2 | 11.3 | 0.00 | 0.61 | 0.00 | 83 | 1016.5 |
| 20260904151656 | 31 | 218 | 4.8 | 9.7 | 0.00 | 0.61 | 0.00 | 84 | 1016.5 |
| 20260904151405 | 31 | 218 | 4.8 | 9.7 | 0.00 | 0.61 | 0.00 | 84 | 1016.5 |
| 20260904150405 | 31 | 194 | 4.8 | 12.9 | 0.00 | 0.61 | 0.00 | 84 | 1016.4 |
| 20260904145835 | 30 | 192 | 3.2 | 9.7 | 0.00 | 0.61 | 0.00 | 84 | 1016.3 |